CAPE
0 3 0 0 0 0 1 4 2 1 5 5 0 0 0 0 0 0 0 0 0 0 0 1 2 0 0
0 0 0 0 0 0 2 0 1 0 6 7 6 0 0 0 0 0 0 0 0 0 0 0 1 0 0
2 2 4 7 0 0 0 2 2 5 5 3 0 0 0 1 0 0 0 0 0 0 0 0 0 0 0
8 3 0 0 0 0 1 0 0 2 0 0 3 3 2 0 0 0 0 0 0 0 0 0 0 0 0
1 0 1 3 6 2 5 3 3 1 0 0 0 3 1 1 0 0 0 0 0 0 0 0 0 0 0
8 16 0 6 8 7 19 7 4 2 1 0 2 1 0 0 0 0 0 0 0 0 0 0 0 0 0
32 18 16 14 12 5 18 29 7 3 0 1 1 0 0 0 0 0 0 0 0 0 0 0 0 0 0
28 18 10 13 5 8 22 19 10 0 0 0 0 0 0 1 1 0 0 0 0 0 0 0 0 0 0
36 39 22 19 11 27 5 1 0 0 1 0 0 0 0 0 0 0 0 0 0 0 4 0 0 0 0
24 11 27 25 1 21 7 2 2 0 1 0 1 0 0 0 0 0 0 0 0 0 1 4 6 0 0
11 30 65 26 6 19 18 13 0 0 1 0 0 1 0 0 0 0 0 0 0 0 0 8 6 0 0
16 27 24 4 7 5 0 0 6 6 1 1 0 0 0 0 0 0 0 0 0 0 0 3 14 1 2
6 15 5 8 1 0 2 0 0 0 0 0 0 0 0 0 0 0 0 0 0 2 7 3 8 0 0
0 2 0 0 0 7 2 0 1 1 1 0 0 0 0 1 0 0 0 0 0 0 1 8 5 2 1
0 1 3 1 3 5 0 0 1 3 1 0 0 0 0 1 1 0 0 0 0 0 0 0 0 0 0
4 0 0 2 2 1 2 1 0 0 2 0 1 0 0 0 0 0 0 1 0 0 2 1 0 0 0
0 7 2 6 4 1 0 0 0 1 0 0 0 0 1 0 0 2 1 0 0 0 0 1 2 0 0
CIN
-0 -0 -0 -0 -0 -0 -0 -1 -0 -0 -1 -2 -1 -0 -0 -0 -0 -0 -0 -0 -0 -0 -0 -0 -0 -0 -0
-0 -0 -0 -0 -0 -0 -1 -2 -1 -0 -1 -1 -3 -0 -0 -0 -0 -0 -0 -0 -0 -0 -0 -0 -0 -0 -0
-0 -1 -1 -3 -0 -0 -0 -1 -1 -4 -2 -2 -2 -0 -0 -0 -0 -0 -0 -0 -0 -0 -0 -0 -0 -0 -0
-1 -1 -0 -2 -1 -0 -2 -3 -0 -4 -0 -2 -2 -2 -1 -0 -0 -0 -0 -0 -0 -0 -0 -0 -0 -0 -0
-1 -0 -0 -0 -0 -0 -7 -5 -12 -11 -0 -0 -0 -3 -4 -2 -0 -0 -0 -0 -0 -0 -0 -0 -0 -0 -0
-0 -0 -1 -0 -1 -1 -2 -2 -0 -1 -7 -0 -20 -7 -0 -0 -0 -0 -0 -0 -0 -0 -0 -0 -0 -0 -0
-1 -1 -0 -1 -4 -6 -0 -0 -1 -4 -1 -0 -1 -0 -3 -0 -0 -0 -0 -0 -0 -0 -0 -0 -0 -0 -0
-4 -7 -1 -2 -10 -10 -3 -2 -7 -7 -0 -0 -0 -0 -0 -4 -1 -0 -0 -0 -0 -0 -0 -0 -0 -0 -0
-4 -9 -15 -20 -15 -1 -22 -0 -0 -0 -1 -0 -0 -0 -0 -0 -0 -0 -0 -0 -0 -0 -0 -0 -0 -0 -0
-8 -10 -4 -6 -0 -2 -9 -19 -23 -0 -0 -1 -0 -0 -0 -0 -0 -0 -0 -0 -0 -0 -0 -0 -0 -0 -0
-23 -4 -1 -14 -17 -2 -2 -1 -0 -0 -0 -0 -0 -0 -0 -0 -0 -0 -0 -0 -0 -0 -0 -0 -1 -0 -0
-6 -2 -3 -5 -5 -24 -4 -2 -0 -1 -5 -0 -0 -0 -0 -0 -0 -0 -0 -0 -0 -0 -0 -1 -0 -3 -0
-26 -9 -17 -23 -2 -0 -11 -0 -0 -0 -0 -0 -0 -0 -0 -0 -0 -0 -0 -0 -0 -11 -4 -3 -2 -2 -4
-0 -13 -2 -0 -1 -5 -4 -0 -0 -0 -0 -0 -0 -0 -0 -0 -0 -0 -0 -0 -0 -0 -15 -16 -10 -6 -10
-0 -1 -8 -5 -5 -6 -2 -0 -0 -0 -0 -0 -0 -0 -0 -0 -0 -0 -0 -0 -0 -0 -0 -0 -0 -0 -0
-3 -0 -0 -5 -4 -6 -5 -6 -0 -0 -1 -0 -0 -0 -0 -0 -0 -0 -0 -0 -0 -0 -0 -0 -0 -0 -0
-3 -3 -3 -3 -3 -5 -4 -7 -0 -2 -1 -3 -0 -0 -0 -0 -0 -0 -0 -0 -0 -0 -0 -0 -0 -0 -0
Wind_Speed
42 41 42 42 42 41 40 39 39 39 38 37 34 34 34 33 32 30 28 27 27 27 26 25 24 23 22
45 45 44 43 44 44 41 41 42 43 43 41 38 39 36 34 33 32 29 27 26 26 26 25 23 22 20
49 44 44 42 46 46 46 44 43 43 42 41 40 41 41 39 35 33 32 29 27 25 25 25 24 22 19
46 46 47 46 45 48 47 43 44 42 43 44 43 42 42 41 38 35 32 29 27 25 24 23 24 23 20
48 48 48 47 47 46 49 46 45 43 45 41 40 40 38 38 37 36 33 30 28 26 24 23 22 22 21
47 48 47 45 44 44 45 48 50 38 40 41 38 41 40 38 36 35 33 31 28 27 25 23 22 21 20
42 41 43 41 42 44 45 45 46 44 41 46 39 42 39 37 36 34 32 29 28 27 26 24 23 21 20
35 36 37 39 41 43 45 46 45 43 40 48 40 42 39 38 35 33 33 31 29 28 26 25 23 23 22
36 35 36 37 37 37 38 39 41 39 34 38 38 39 36 36 35 31 31 30 31 30 28 26 25 24 24
39 38 35 33 39 33 32 36 37 38 29 30 34 31 32 27 25 26 29 30 29 29 30 27 25 25 25
38 36 34 33 31 29 29 29 32 33 33 32 29 27 26 27 24 22 23 24 26 26 27 28 26 25 26
33 33 33 32 31 32 32 33 33 35 36 32 31 29 30 29 27 23 22 23 23 23 24 25 25 25 27
32 31 30 31 32 35 35 36 36 35 34 31 31 31 32 33 30 27 24 23 23 24 21 23 25 26 27
31 29 29 32 35 35 34 35 36 35 31 31 31 29 33 33 33 33 30 27 24 24 25 26 25 26 27
28 28 28 29 30 32 32 33 34 34 33 32 29 29 31 31 32 32 31 31 29 27 24 27 29 28 27
26 28 29 27 29 30 30 31 33 33 32 32 29 29 29 29 27 30 28 29 28 27 27 27 27 27 27
22 23 26 28 29 30 31 31 31 31 31 31 30 29 32 32 26 22 26 25 25 27 28 29 28 27 26
Wind_Direction
310 311 310 310 310 309 307 305 305 304 303 301 300 301 299 297 297 297 298 300 300 301 303 305 306 307 310
309 309 308 309 308 307 306 305 303 301 299 299 297 297 296 294 293 292 292 294 296 296 297 299 301 304 305
306 308 308 309 308 306 304 303 302 301 298 296 297 295 292 290 288 287 287 286 287 290 293 293 294 296 301
304 305 305 306 304 303 300 301 300 299 297 296 295 294 292 289 286 284 283 281 281 283 286 287 287 288 292
304 304 303 303 301 301 298 298 296 297 295 293 292 292 293 291 286 282 279 276 276 277 278 280 280 282 283
305 304 304 305 303 300 299 297 294 298 295 292 293 290 290 289 287 284 279 273 271 272 273 273 274 274 276
305 305 305 308 306 302 299 296 294 293 294 290 293 288 288 287 284 282 280 273 269 268 268 267 269 269 269
307 305 305 306 304 301 299 297 294 293 294 287 291 287 287 284 282 279 275 273 270 266 264 263 264 266 265
309 306 306 307 306 307 304 303 299 299 299 293 293 293 292 288 283 277 275 270 268 266 262 260 259 261 263
312 310 309 310 309 307 308 305 302 301 308 302 298 296 294 296 294 288 281 273 268 264 261 258 256 259 260
314 313 311 309 312 310 312 310 308 304 299 300 299 301 296 292 295 295 293 285 274 266 260 256 253 256 258
318 316 314 311 310 311 310 306 302 297 289 292 296 297 294 292 286 292 290 286 282 271 262 258 252 254 258
320 318 318 315 311 307 306 300 296 291 290 295 294 291 286 282 283 283 283 285 279 272 268 260 255 254 255
322 322 322 317 310 307 303 300 296 293 292 290 292 293 284 282 277 273 275 275 276 272 266 262 261 259 256
329 326 324 322 316 311 305 301 297 293 290 291 294 293 286 283 279 274 273 271 269 269 268 264 260 259 259
332 328 324 323 319 314 308 301 296 291 288 284 288 292 289 284 283 279 277 272 270 266 264 264 264 260 260
334 333 326 319 314 311 307 303 296 292 285 284 286 285 278 275 290 288 281 280 275 268 264 261 262 262 261